Wind_Speed
15 15 15 15 15 15 16 15 16 16 17 18 19 19 19 20 20 20 21 22 22 22 22 22 22 21 21 21 20 20 19 19 18 18 19 19 19 19 19 19 19 20 21 21
16 15 14 13 13 14 15 15 16 17 17 18 19 20 21 21 21 21 22 22 23 23 23 23 22 22 22 21 21 20 20 19 19 18 19 19 20 20 20 20 20 21 21 22
15 15 13 12 13 14 14 14 15 16 17 18 20 20 21 21 21 22 23 24 24 23 23 23 22 22 21 21 20 20 19 18 17 17 17 18 18 18 19 20 21 21 21 21
14 14 13 11 12 12 12 13 15 16 18 19 20 20 21 21 22 22 23 23 23 22 22 21 20 20 19 19 18 18 17 16 16 16 16 16 15 16 17 17 17 18 18 18
14 14 12 11 12 12 12 13 15 17 18 19 20 20 21 21 22 22 22 22 21 20 20 19 18 17 16 15 15 15 14 14 13 13 14 14 14 14 15 15 16 16 16 17
13 12 11 11 11 12 13 14 16 17 18 19 20 20 20 20 21 21 21 20 19 19 18 16 15 14 13 12 12 12 12 11 11 12 12 13 13 13 14 14 14 14 14 15
12 11 10 10 10 11 13 14 15 16 18 18 18 19 19 20 20 19 18 17 17 16 15 12 11 10 10 9 10 10 10 9 9 10 10 11 11 12 13 12 12 13 13 13
11 10 10 10 10 11 12 13 15 15 16 16 17 18 18 18 17 17 16 15 14 12 10 9 8 7 7 7 7 7 7 7 7 7 7 8 8 9 10 10 11 11 11 11
9 8 8 9 10 11 12 13 13 14 15 16 16 16 16 16 15 15 14 12 9 8 6 5 5 4 4 4 4 4 4 5 5 5 5 5 5 5 6 7 7 7 8 8
8 8 8 9 9 9 10 11 12 13 14 15 15 15 14 14 13 12 10 7 5 3 3 3 3 3 3 3 4 4 4 3 3 3 2 2 2 2 2 3 3 4 5 6
9 8 8 9 8 8 9 9 10 11 13 14 13 13 12 11 10 9 7 4 2 0 1 1 2 3 3 3 4 4 4 3 3 2 1 0 0 1 1 2 2 3 3 4
9 7 7 7 7 6 7 8 10 11 12 12 12 11 10 9 8 7 5 4 2 2 2 3 4 4 4 4 4 4 3 3 3 2 2 2 2 2 3 3 3 3 3 3
8 7 6 6 6 6 6 7 8 9 10 10 10 10 10 9 8 6 5 5 4 4 5 5 5 5 5 5 5 4 4 4 4 3 3 4 4 4 4 4 4 5 5 5
7 7 6 5 5 4 5 6 7 8 9 9 10 10 10 9 8 7 6 6 7 7 7 7 6 6 6 6 6 6 5 5 5 5 5 5 5 5 5 5 6 6 6 6
7 6 5 4 3 3 4 5 6 6 7 8 9 10 10 10 9 9 9 8 9 9 9 8 8 8 7 8 8 7 7 7 7 7 7 7 7 8 8 8 8 8 9 9
7 6 5 4 3 1 2 4 4 5 6 7 9 10 10 11 11 12 11 11 11 10 10 10 9 9 9 9 9 9 9 9 9 9 10 10 11 11 11 11 11 11 11 11
7 6 5 4 2 1 1 2 3 4 5 6 8 10 11 11 12 12 12 12 12 12 11 11 11 11 12 12 12 12 12 12 12 12 13 13 13 13 13 14 14 13 13 12
8 7 6 4 3 2 2 3 4 4 5 6 8 9 10 11 12 13 13 13 13 14 14 14 15 15 14 14 14 14 14 14 14 14 14 15 15 14 14 14 14 14 14 13
8 8 7 6 4 4 4 4 5 6 6 7 8 9 10 11 12 13 14 15 15 15 15 16 16 16 16 16 16 16 16 15 15 15 15 15 14 14 14 15 14 14 14 14
10 9 8 8 6 6 5 5 6 6 7 8 9 10 11 12 13 14 15 15 16 16 16 16 17 17 17 17 17 16 16 16 16 16 15 15 15 15 15 14 14 14 14 14
12 11 10 10 8 7 7 7 7 7 7 8 9 11 11 12 13 14 15 16 16 16 16 17 17 17 17 17 17 17 17 16 16 16 15 15 15 14 14 14 14 14 14 14
13 12 11 11 9 9 8 8 8 8 8 9 9 10 11 12 13 13 14 15 15 16 16 16 17 17 17 17 17 16 16 16 16 15 15 14 14 14 14 14 14 14 14 14
14 13 13 12 11 11 10 10 9 8 9 9 10 10 11 11 12 13 13 14 14 15 15 16 16 16 16 16 16 16 16 16 15 15 15 14 14 14 13 13 13 13 13 13
17 16 15 14 13 12 12 11 11 10 10 10 10 10 11 11 11 12 13 13 14 14 15 15 16 16 16 16 15 15 15 15 15 15 14 14 13 13 13 13 13 13 13 13
20 18 18 17 16 15 14 13 12 11 11 10 11 11 11 11 11 12 12 13 13 14 14 14 14 14 15 14 14 14 14 14 14 14 13 13 12 12 12 12 12 12 12 12
22 22 21 20 19 17 16 15 14 13 12 12 11 11 11 11 11 11 12 12 12 13 13 13 13 13 13 13 13 14 13 13 13 13 13 12 12 12 12 12 12 12 12 12
25 24 23 23 21 20 18 17 16 15 14 14 13 12 12 11 11 11 11 11 11 12 12 12 12 12 12 12 12 13 13 12 12 12 12 11 11 11 11 11 11 12 12 12
Wind_Direction
247 255 257 262 267 273 281 287 289 293 294 296 296 295 295 295 292 291 289 287 285 283 283 282 281 278 275 271 269 267 265 263 261 260 258 254 249 249 249 248 248 252 253 254
250 256 259 265 270 275 281 288 292 295 297 297 296 295 295 295 293 290 287 285 285 285 284 283 281 277 275 270 268 265 262 261 258 257 256 253 250 250 250 250 253 257 257 255
247 254 261 267 272 279 279 286 292 293 295 298 298 297 296 295 293 291 290 288 286 286 286 285 282 278 275 271 268 265 263 261 255 255 254 253 253 251 252 253 255 257 257 257
249 252 260 265 269 278 282 287 291 293 297 299 299 297 296 295 293 292 291 291 289 288 286 284 282 280 276 271 266 262 260 256 253 252 251 252 254 252 251 251 251 254 255 257
251 254 256 260 269 276 284 291 293 296 299 300 299 298 296 294 292 293 292 290 290 288 285 284 282 279 274 268 262 257 253 252 249 249 249 248 250 250 252 252 253 254 257 259
245 249 254 258 268 277 288 293 297 300 302 302 301 299 298 296 296 295 294 292 290 288 285 284 280 275 269 261 253 250 246 244 244 246 246 248 250 251 252 255 257 256 257 258
243 250 256 260 270 281 289 297 301 303 306 304 302 302 302 302 300 300 298 295 292 289 287 282 278 271 260 246 241 241 240 241 244 245 245 247 250 253 252 253 256 258 260 260
244 251 256 261 272 280 289 298 304 308 311 309 306 306 307 306 305 305 303 298 293 288 283 277 269 263 246 235 232 232 232 233 236 237 241 246 251 251 248 251 256 260 265 267
244 251 255 263 272 278 288 299 307 313 316 315 315 314 313 312 312 313 311 302 292 283 275 268 259 234 211 215 214 215 217 219 222 227 235 243 251 256 254 255 256 259 267 273
240 249 258 264 272 280 290 302 312 320 322 323 322 321 320 320 321 323 324 316 303 280 260 225 217 198 190 184 184 184 185 188 197 205 221 247 268 269 260 262 269 277 283 282
239 242 256 263 268 282 296 309 317 324 328 329 329 329 329 329 331 336 343 347 348 10 167 185 172 160 156 157 160 159 158 155 153 153 160 152 36 49 41 18 350 327 319 310
232 242 257 258 265 287 303 316 324 328 332 336 338 340 344 348 352 356 5 21 50 82 119 129 138 147 144 143 144 143 140 138 137 130 105 62 50 51 50 39 29 25 21 12
225 238 247 252 267 289 308 322 333 339 343 348 352 356 2 8 15 25 38 59 75 94 108 118 125 131 131 125 126 119 113 109 107 100 85 70 66 63 58 52 48 44 39 32
213 221 234 246 264 289 315 333 343 350 356 3 11 15 17 24 35 52 69 79 85 94 97 101 108 115 117 116 113 108 103 102 99 95 88 80 74 72 67 63 60 58 58 57
204 211 224 241 263 289 321 339 350 1 9 16 21 24 29 39 51 64 76 83 88 91 92 97 103 107 110 108 105 103 100 98 95 92 89 85 81 78 78 78 76 75 74 71
203 207 220 235 243 274 337 350 3 15 26 30 32 37 45 55 64 71 77 80 84 88 91 94 99 102 101 102 103 101 97 95 94 93 92 89 87 85 84 83 81 80 78 74
202 206 217 227 225 218 33 35 41 43 47 49 50 51 57 63 67 71 75 80 83 86 87 89 92 97 99 100 100 98 95 94 94 95 93 91 89 87 86 84 81 78 75 71
202 207 208 200 186 160 118 93 79 73 71 66 64 63 65 69 71 73 76 81 83 86 88 89 90 93 97 98 98 96 94 93 95 95 93 92 91 88 86 82 78 75 72 68
200 199 196 189 177 159 135 114 104 95 86 80 75 72 73 76 77 79 80 83 87 90 91 91 91 91 93 96 97 96 95 94 95 95 94 93 91 87 83 80 76 72 69 66
196 192 187 179 169 159 144 128 117 108 97 89 85 83 82 83 84 84 85 86 88 91 93 92 92 92 92 94 95 95 94 93 93 93 92 90 88 85 82 78 73 70 67 65
193 189 184 177 170 163 152 140 129 120 110 101 96 94 92 91 91 90 90 90 90 92 94 94 94 94 94 94 94 93 93 92 91 90 88 87 85 82 79 75 71 68 65 63
190 186 183 179 173 166 159 151 141 131 122 114 108 104 101 99 98 96 95 95 94 94 95 95 95 95 95 94 93 92 91 90 89 87 85 83 80 78 76 73 70 68 65 61
192 188 185 183 177 170 164 158 151 142 134 126 119 114 111 108 106 103 101 99 98 97 96 96 96 95 94 93 92 91 90 89 87 85 83 81 79 76 73 70 67 64 60 56
196 193 189 186 181 176 171 165 158 150 143 137 130 124 120 117 114 110 107 104 102 99 98 96 95 94 93 92 91 90 89 88 87 85 82 80 77 74 71 67 63 60 56 52
200 197 193 191 188 184 179 172 166 160 154 147 140 134 129 126 123 119 115 111 107 103 101 99 96 94 93 92 91 89 87 85 83 81 80 78 74 71 67 64 59 55 51 47
203 201 198 195 193 191 186 180 175 170 165 159 152 146 141 136 132 127 123 119 114 110 106 103 100 97 94 92 91 89 87 84 81 79 77 75 72 68 64 59 54 49 44 40
206 205 202 198 196 194 192 188 184 180 176 171 165 159 153 148 142 137 132 128 123 119 114 109 104 101 98 95 92 90 87 84 81 77 73 69 65 61 56 51 46 41 36 32
Height
5756 5756 5757 5758 5759 5759 5758 5758 5757 5756 5755 5753 5751 5749 5747 5745 5743 5741 5739 5737 5735 5734 5732 5731 5730 5729 5728 5728 5728 5728 5728 5728 5729 5729 5730 5731 5732 5733 5734 5735 5736 5738 5739 5740
5752 5753 5754 5755 5755 5755 5754 5754 5753 5752 5751 5748 5746 5744 5742 5740 5738 5735 5733 5731 5729 5728 5726 5725 5723 5723 5722 5722 5722 5722 5723 5723 5724 5725 5725 5726 5727 5728 5729 5730 5731 5733 5734 5735
5749 5750 5750 5752 5752 5752 5751 5750 5749 5748 5747 5744 5742 5739 5737 5735 5732 5730 5727 5725 5723 5722 5720 5719 5717 5717 5716 5716 5716 5717 5717 5718 5719 5719 5720 5721 5722 5723 5724 5725 5726 5727 5729 5729
5745 5747 5748 5751 5749 5749 5748 5747 5746 5744 5742 5739 5737 5734 5732 5729 5727 5724 5722 5719 5717 5716 5714 5713 5712 5711 5710 5710 5711 5711 5712 5713 5714 5715 5716 5717 5718 5718 5720 5721 5722 5723 5723 5724
5742 5743 5745 5747 5746 5745 5745 5744 5742 5740 5737 5734 5731 5729 5726 5724 5721 5718 5716 5714 5712 5710 5708 5707 5706 5706 5705 5705 5706 5707 5708 5709 5710 5711 5712 5713 5714 5715 5716 5717 5718 5718 5719 5720
5739 5741 5742 5745 5743 5742 5743 5741 5739 5735 5733 5730 5727 5724 5722 5718 5715 5713 5710 5708 5706 5704 5703 5702 5701 5701 5701 5701 5702 5703 5704 5705 5706 5707 5709 5710 5711 5712 5713 5713 5714 5715 5715 5716
5737 5738 5740 5741 5740 5740 5740 5739 5735 5732 5729 5726 5723 5720 5717 5713 5711 5708 5705 5703 5701 5700 5699 5698 5698 5698 5698 5698 5699 5700 5701 5703 5704 5705 5706 5707 5708 5709 5709 5710 5711 5711 5712 5712
5735 5736 5739 5738 5737 5737 5737 5734 5731 5729 5725 5722 5719 5716 5712 5709 5706 5704 5701 5699 5697 5696 5695 5695 5695 5695 5696 5696 5697 5698 5700 5701 5702 5703 5704 5704 5705 5706 5706 5707 5708 5708 5709 5709
5734 5736 5735 5735 5735 5734 5733 5731 5729 5726 5722 5719 5716 5712 5709 5706 5703 5700 5697 5695 5694 5693 5693 5693 5694 5694 5695 5696 5696 5697 5699 5700 5700 5701 5702 5703 5703 5704 5704 5705 5705 5706 5706 5706
5731 5733 5733 5733 5733 5732 5731 5729 5726 5723 5720 5717 5713 5710 5706 5703 5700 5697 5695 5693 5692 5692 5692 5692 5693 5694 5695 5696 5697 5697 5698 5699 5700 5701 5701 5702 5702 5702 5703 5703 5704 5704 5704 5704
5729 5731 5731 5731 5731 5730 5729 5727 5724 5722 5718 5715 5711 5708 5705 5701 5698 5696 5694 5693 5692 5692 5692 5692 5693 5694 5695 5696 5697 5698 5699 5699 5700 5701 5702 5702 5702 5702 5703 5703 5703 5704 5703 5703
5728 5729 5729 5730 5729 5729 5727 5726 5723 5720 5717 5714 5710 5707 5704 5701 5698 5696 5694 5693 5692 5692 5692 5693 5694 5695 5696 5696 5697 5698 5699 5700 5701 5702 5702 5702 5703 5703 5703 5703 5703 5703 5703 5703
5726 5727 5728 5728 5728 5727 5726 5724 5722 5719 5717 5714 5710 5707 5704 5701 5698 5696 5695 5694 5693 5693 5694 5694 5695 5696 5697 5697 5698 5699 5700 5701 5702 5702 5703 5703 5703 5703 5704 5704 5704 5704 5703 5703
5725 5726 5727 5727 5727 5726 5725 5723 5721 5719 5717 5714 5711 5708 5705 5702 5700 5698 5697 5696 5695 5695 5695 5696 5696 5697 5698 5699 5700 5701 5702 5702 5703 5704 5704 5704 5704 5705 5705 5705 5705 5705 5704 5704
5724 5725 5726 5726 5726 5725 5724 5723 5721 5720 5718 5715 5713 5710 5707 5704 5702 5701 5699 5699 5698 5698 5698 5698 5699 5699 5700 5701 5702 5702 5703 5704 5705 5705 5706 5706 5706 5706 5706 5706 5706 5706 5706 5706
5724 5724 5725 5725 5725 5725 5724 5723 5722 5720 5719 5717 5715 5712 5710 5708 5706 5704 5703 5702 5702 5701 5701 5701 5701 5702 5702 5703 5704 5705 5705 5706 5707 5707 5708 5708 5708 5708 5709 5709 5709 5709 5708 5708
5723 5724 5725 5725 5725 5724 5724 5723 5722 5721 5720 5719 5717 5715 5713 5712 5710 5708 5707 5706 5706 5705 5705 5705 5705 5705 5705 5706 5707 5708 5708 5709 5710 5710 5711 5711 5711 5711 5712 5712 5712 5712 5711 5711
5722 5724 5725 5725 5725 5725 5724 5724 5723 5723 5722 5721 5720 5718 5717 5715 5714 5713 5711 5711 5710 5709 5709 5709 5709 5709 5709 5710 5710 5711 5712 5712 5713 5713 5714 5714 5715 5715 5715 5715 5715 5715 5715 5714
5721 5723 5724 5725 5725 5725 5725 5725 5725 5725 5724 5723 5722 5721 5720 5719 5718 5717 5716 5715 5714 5714 5714 5714 5714 5714 5714 5714 5715 5715 5716 5716 5717 5717 5718 5718 5718 5718 5719 5719 5718 5718 5718 5717
5721 5722 5723 5725 5726 5726 5727 5727 5727 5727 5726 5726 5725 5725 5724 5723 5722 5722 5721 5720 5719 5719 5719 5719 5719 5719 5719 5719 5719 5720 5720 5721 5721 5721 5722 5722 5722 5722 5722 5722 5722 5722 5721 5720
5720 5721 5723 5724 5726 5727 5727 5728 5729 5729 5729 5729 5728 5728 5728 5727 5727 5726 5725 5725 5725 5724 5724 5724 5724 5724 5724 5724 5724 5725 5725 5725 5725 5726 5726 5726 5726 5726 5726 5726 5725 5725 5724 5724
5719 5721 5723 5724 5726 5727 5728 5729 5730 5731 5731 5731 5731 5731 5731 5731 5731 5730 5730 5730 5730 5729 5729 5729 5729 5729 5729 5729 5729 5729 5729 5730 5730 5730 5730 5730 5730 5730 5730 5729 5729 5728 5727 5727
5719 5721 5723 5725 5726 5728 5729 5730 5731 5732 5733 5733 5734 5734 5734 5734 5734 5734 5734 5734 5734 5734 5734 5734 5733 5733 5733 5733 5734 5734 5734 5734 5734 5734 5734 5734 5734 5733 5733 5732 5732 5731 5730 5729
5718 5720 5722 5725 5726 5728 5730 5731 5733 5734 5735 5735 5736 5736 5737 5737 5737 5737 5738 5738 5738 5738 5738 5738 5738 5738 5738 5738 5738 5738 5738 5738 5737 5737 5737 5737 5737 5737 5736 5735 5735 5734 5733 5732
5716 5719 5722 5724 5726 5728 5730 5732 5733 5735 5736 5737 5738 5738 5739 5740 5740 5741 5741 5741 5741 5741 5742 5742 5742 5742 5742 5742 5741 5741 5741 5741 5741 5740 5740 5740 5740 5739 5739 5738 5737 5736 5735 5734
5714 5717 5720 5723 5725 5728 5730 5732 5733 5735 5737 5738 5739 5740 5741 5742 5743 5743 5744 5744 5745 5745 5745 5745 5745 5745 5745 5745 5745 5745 5745 5744 5744 5744 5743 5743 5742 5742 5741 5740 5739 5738 5737 5735
5711 5715 5718 5721 5724 5727 5729 5731 5733 5735 5737 5738 5740 5741 5742 5743 5744 5745 5746 5747 5747 5747 5748 5748 5748 5748 5748 5748 5748 5748 5748 5747 5747 5747 5746 5746 5745 5744 5743 5742 5741 5740 5738 5737